Weather History for KMOB - January, 2013

Change the Weather History Date:

Friday, January 18, 2013

  Actual Average Record
Temperature  
Mean Temperature 47 °F 50 °F  
Max Temperature 59 °F 61 °F 77 °F (1952)
Min Temperature 34 °F 40 °F 14 °F (1948)
Degree Days  
Heating Degree Days 18 15  
Month to date heating degree days 195 270  
Since 1 July heating degree days 796 932  
Cooling Degree Days 0 0  
Month to date cooling degree days 19 0  
Year to date cooling degree days 19 0  
Moisture  
Dew Point 33 °F    
Average Humidity 65    
Maximum Humidity 89    
Minimum Humidity 40    
Precipitation  
Precipitation 0.00 in 0.19 in 3.82 in (1943)
Month to date precipitation 1.96 3.22  
Year to date precipitation 1.96 3.22  
Snow  
Snow 0.00 in 0.00 in - ()
Month to date snowfall 0.0 0.0  
Since 1 July snowfall 0.0 T  
Snow Depth 0.00 in    
Sea Level Pressure  
Sea Level Pressure 30.44 in    
Wind  
Wind Speed 7 mph (NNE)    
Max Wind Speed 16 mph    
Max Gust Speed 21 mph    
Visibility 10 miles    
Events      
T = Trace of Precipitation, MM = Missing Value Source: NWS Daily Summary

Daily Weather History Graph

Daily Weather History Graph

Search for Another Location

Airport or City:

Trip Planner

Search our weather history database for the weather conditions in past years. The results will help you decide how hot, cold, wet, or windy it might be!

Date:

Astronomy

Jan. 18, 2013 Rise Set
Actual Time 6:50 AM CST 5:16 PM CST
Civil Twilight 6:24 AM CST 5:42 PM CST
Nautical Twilight 5:55 AM CST 6:12 PM CST
Astronomical Twilight 5:26 AM CST 6:41 PM CST
Moon 11:02 AM CST (1/18) No Moon Set
Length of Visible Light 11h 18m
Length of Day
10h 26m
Waxing Crescent, 47% of the Moon is Illuminated
Jan 18
Waxing Crescent
Jan 18
First Quarter
Jan 26
Full
Feb 3
Last Quarter
Feb 10
New

Hourly Weather History & Observations

Time (CST) Temp. Windchill Dew Point Humidity Pressure Visibility Wind Dir Wind Speed Gust Speed Precip Events Conditions
12:56 AM 39.0 °F 31.0 °F 33.1 °F 79% 30.39 in 10.0 mi NNW 13.8 mph - N/A   Clear
1:56 AM 37.9 °F 30.9 °F 33.1 °F 83% 30.40 in 10.0 mi NNW 10.4 mph - N/A   Clear
2:56 AM 37.0 °F 29.3 °F 33.1 °F 86% 30.40 in 10.0 mi NNW 11.5 mph - N/A   Clear
3:56 AM 37.0 °F 29.3 °F 33.1 °F 86% 30.43 in 10.0 mi North 11.5 mph - N/A   Clear
4:56 AM 36.0 °F 28.0 °F 32.0 °F 86% 30.44 in 10.0 mi North 11.5 mph - N/A   Clear
5:56 AM 36.0 °F 28.0 °F 32.0 °F 86% 30.46 in 10.0 mi North 11.5 mph - N/A   Clear
6:56 AM 36.0 °F 27.5 °F 32.0 °F 86% 30.48 in 7.0 mi North 12.7 mph - N/A   Partly Cloudy
7:56 AM 37.9 °F 29.6 °F 33.1 °F 83% 30.50 in 7.0 mi NNE 13.8 mph - N/A   Partly Cloudy
8:56 AM 43.0 °F 36.4 °F 33.1 °F 68% 30.51 in 10.0 mi NE 12.7 mph - N/A   Partly Cloudy
9:12 AM 44.6 °F 37.4 °F 32.0 °F 61% 30.52 in 10.0 mi NNE 16.1 mph - N/A   Partly Cloudy
9:56 AM 46.9 °F - 32.0 °F 56% 30.52 in 10.0 mi NE 10.4 mph - N/A   Partly Cloudy
10:56 AM 50.0 °F - 33.1 °F 52% 30.51 in 10.0 mi NNE 10.4 mph - N/A   Partly Cloudy
11:56 AM 54.0 °F - 35.1 °F 49% 30.47 in 10.0 mi NNE 9.2 mph - N/A   Partly Cloudy
12:56 PM 55.0 °F - 34.0 °F 45% 30.44 in 10.0 mi Variable 4.6 mph - N/A   Partly Cloudy
1:56 PM 57.9 °F - 34.0 °F 41% 30.41 in 10.0 mi NE 8.1 mph - N/A   Partly Cloudy
2:56 PM 57.9 °F - 33.1 °F 39% 30.40 in 10.0 mi NE 4.6 mph - N/A   Partly Cloudy
3:56 PM 57.9 °F - 33.1 °F 39% 30.40 in 10.0 mi North 6.9 mph - N/A   Partly Cloudy
4:56 PM 54.0 °F - 30.9 °F 41% 30.41 in 10.0 mi NNE 5.8 mph - N/A   Partly Cloudy
5:56 PM 48.9 °F - 33.1 °F 54% 30.42 in 10.0 mi North 3.5 mph - N/A   Partly Cloudy
6:56 PM 44.1 °F - 35.1 °F 71% 30.43 in 10.0 mi Calm Calm - N/A   Clear
7:56 PM 42.1 °F - 35.1 °F 76% 30.43 in 10.0 mi Calm Calm - N/A   Partly Cloudy
8:56 PM 41.0 °F - 35.1 °F 79% 30.43 in 10.0 mi Calm Calm - N/A   Clear
9:56 PM 41.0 °F - 33.1 °F 73% 30.41 in 10.0 mi Calm Calm - N/A   Clear
10:56 PM 42.1 °F - 32.0 °F 67% 30.39 in 10.0 mi Calm Calm - N/A   Clear
11:56 PM 35.1 °F 30.1 °F 32.0 °F 89% 30.39 in 10.0 mi NNW 5.8 mph - N/A   Clear